Regional Weather Roundup
Issued by NWS

Home | Current Version | Previous Version | Text Only | Print | Product List | Glossary On
Versions: 1 2 3 4 5 6 7 8 9 10 11 12 13 14 15 16 17 18 19 20 21 22 23 24 25 26 27 28 29 30 31 32 33 34 35 36 37 38 39 40 41 42 43 44 45 46 47 48 49 50
000
ASUS45 KTFX 230504
RWRMT
MONTANA HOURLY WEATHER ROUNDUP
NATIONAL WEATHER SERVICE GREAT FALLS MT
1104 PM MDT MON SEP 22 2014

NOTE: "FAIR" INDICATES FEW OR NO CLOUDS BELOW 12000 FEET WITH NO
SIGNIFICANT WEATHER AND/OR OBSTRUCTIONS TO VISIBILITY.

* THESE STATIONS ARE NOT UNDER NWS QUALITY CONTROL. THEY DO NOT
   REPORT WEATHER SUCH AS PRECIPITATION OR FOG.

MTZ001>007-043-230600-
WEST OF THE DIVIDE
CITY           SKY/WX    TMP DP  RH WIND       PRES   REMARKS
KALISPELL      PTCLDY    55  46  72 W3        29.92R
MISSOULA       CLEAR     63  45  52 CALM      29.97R
BUTTE          PTCLDY    52  46  80 S5        30.12S
MULLAN PASS    PTCLDY    57  41  55 VRB5      30.12S
* ESSEX        N/A       58  46  65 SE4        N/A
* LINCOLN      N/A       55  38  53 NE2        N/A
* POLSON       N/A       64  40  41 N/A        N/A
* RONAN APT    PTCLDY    63  46  54 N/A        N/A
* SEELEY LAKE  N/A       52  37  57 N2         N/A
* THOMP F APT  MOCLDY    50  48  93 NE3        N/A
$$

MTZ008-052>055-230600-
SOUTHWEST MONTANA
CITY           SKY/WX    TMP DP  RH WIND       PRES   REMARKS
BOZEMAN        MOCLDY    54  50  86 SE7       30.05S
DILLON         CLOUDY    57  48  72 CALM      30.10R
W YELLOWSTONE  MOCLDY    50  46  86 S7        30.21S
* THREE FORKS  MOCLDY    57  57 100 N/A        N/A
* BOULDER HILL N/A       60  44  56 SW6        N/A
* MONIDA PASS  N/A       48  48 100 SE6        N/A
* RAYNOLDS PAS N/A       51  34  52 S11G16     N/A
* WHITEHALL    N/A       59  50  72 N2G7       N/A
* WISE RIVER   N/A       55  43  64 W6         N/A
$$

MTZ009>010-012-014-046-048-049-054-230600-
EAST SLOPES AND CENTRAL MONTANA
CITY           SKY/WX    TMP DP  RH WIND       PRES   REMARKS
CUT BANK       MOCLDY    61  45  56 W13       29.92S
GREAT FALLS    MOCLDY    64  48  56 SW10      29.93R
HELENA         MOCLDY    63  52  68 CALM      30.00S
MALMSTROM AFB  MOCLDY    66  48  52 SW10      29.93R
* CONRAD       MOCLDY    63  48  58 N/A        N/A
* EAST GLACIER N/A       61  42  50 NW6        N/A
* MONARCH      N/A       58  42  55 W1         N/A
* PENDROY      N/A       65  44  47 NW10       N/A
* ROGERS PASS  N/A       58  37  46 NW2        N/A
* SAINT MARY   N/A       56  42  60 SE4G9      N/A
* SWEET GRASS  N/A       66  42  42 W11        N/A
$$

MTZ011-013-016-021-035-040-045-047-050-051-230600-
NORTH CENTRAL MONTANA
CITY           SKY/WX    TMP DP  RH WIND       PRES   REMARKS
HAVRE          PTCLDY    55  48  77 SW6       29.84R
LEWISTOWN      CLEAR     54  48  80 SE7       29.95S
* CHESTER      N/A       56  43  62 N3         N/A
* DENTON       N/A       54  48  80 SW1G6      N/A
* JUDITH GAP   N/A       53  50  90 SE7        N/A
* LOMA         N/A       65  48  54 SW4        N/A
$$

MTZ017>020-022>027-061-062-230600-
NORTHEAST MONTANA
CITY           SKY/WX    TMP DP  RH WIND       PRES   REMARKS
GLASGOW        CLEAR     61  46  58 SE5       29.83S
GLENDIVE       CLEAR     57  48  72 NE6       29.86F
JORDAN         CLEAR     52  48  86 W5        29.85F
SIDNEY         CLEAR     55  46  72 CALM      29.87S
WOLF POINT     CLEAR     59  48  67 NE3       29.84S
* BEAVER HILL  N/A       60  49  67 E10        N/A
* CIRCLE       N/A       59  48  67 N/A        N/A
* LINDSAY DVD  N/A       59  49  70 NE6        N/A
* NAVAJO       N/A       59  46  62 SW4        N/A
$$

MTZ028>042-056>058-230600-
SOUTHCENTRAL AND SOUTHEAST MONTANA
CITY           SKY/WX    TMP DP  RH WIND       PRES   REMARKS
BAKER          PTCLDY    57  50  78 E6        29.89S
BILLINGS       PTCLDY    68  46  45 SW9       29.94S
LIVINGSTON     PTCLDY    57  46  67 NW13      30.04R
MILES CITY     CLEAR     57  46  67 NW9       29.85S
* LAUREL APT   PTCLDY    72  45  38 W10G18     N/A
* ROUNDUP APT  PTCLDY    63  48  58 N/A        N/A
* ALZADA       N/A       68  50  53 SE4        N/A
* HYSHAM       N/A       68  46  45 W6         N/A
* LAME DEER    N/A       65  49  56 W7         N/A
* REED POINT   N/A       67  46  47 W9         N/A
* ROSCOE HILL  N/A       63  36  37 SW6G15     N/A
$$

REGIONAL REPORTS...DAKOTAS
CITY           SKY/WX    TMP DP  RH WIND       PRES   REMARKS
WILLISTON      CLEAR     61  48  62 CALM      29.87F
DICKINSON      CLEAR     59  48  67 SE13      29.88F
BEACH          N/A       54  50  86 SE5       29.88F
CROSBY         N/A       61  52  72 S13       29.88F
TIOGA          CLEAR     59  48  67 SE9       29.93S
WATFORD CITY   CLEAR     55  48  77 E3        29.86F
BISMARCK       CLEAR     61  50  67 SE9       29.94S
GRAND FORKS    CLEAR     52  48  86 S6        30.03S
FARGO          CLEAR     61  48  62 SE10      30.05F
BUFFALO SD     MOCLDY    63  50  63 SE10      29.84S
RAPID CITY     CLOUDY    61  54  78 CALM      29.94F
$$

REGIONAL REPORTS...WYOMING/IDAHO/WASHINGTON
CITY           SKY/WX    TMP DP  RH WIND       PRES   REMARKS
GILLETTE       TSTM      64  48  56 SW18G24   29.97S
SHERIDAN       PTCLDY    54  48  80 S5        29.96F
CODY           PTCLDY    64  45  50 W12G17    30.06R
YELLOWSTONE LA MOCLDY    46  46 100 CALM      30.29S
SALMON         CLOUDY    61  54  78 CALM      30.06F
MULLAN PASS    PTCLDY    57  41  55 VRB5      30.12S
SAND POINT     MOCLDY    59  52  78 CALM      29.91S
SPOKANE        CLOUDY    66  54  65 S3        29.92R

$$



USA.gov is the U.S. government's official web portal to all federal, state and local government web resources and services.